| time (UTC) | temp C | wind direction | speed KPH | gust KPH | rain 1hr cm | rain 24hr cm | rain mn cm | humidity % | barometer mb |
| 20260503211930 | 14 | 320 | 11.3 | 16.1 | 0.00 | 0.00 | 0.00 | 37 | 1015.0 |
| 20260503211443 | 14 | 149 | 9.7 | 17.7 | 0.00 | 0.00 | 0.00 | 38 | 1015.0 |
| 20260503210933 | 13 | 213 | 9.7 | 17.7 | 0.00 | 0.00 | 0.00 | 38 | 1015.1 |
| 20260503210425 | 14 | 272 | 6.4 | 24.1 | 0.00 | 0.00 | 0.00 | 40 | 1015.1 |
| 20260503205933 | 14 | 260 | 12.9 | 24.1 | 0.00 | 0.00 | 0.00 | 38 | 1015.2 |
| 20260503205444 | 15 | 298 | 11.3 | 24.1 | 0.00 | 0.00 | 0.00 | 36 | 1015.3 |
| 20260503204916 | 15 | 290 | 8.0 | 17.7 | 0.00 | 0.00 | 0.00 | 41 | 1015.2 |
| 20260503204428 | 15 | 183 | 8.0 | 19.3 | 0.00 | 0.00 | 0.00 | 38 | 1015.2 |
| 20260503203955 | 14 | 236 | 6.4 | 19.3 | 0.00 | 0.00 | 0.00 | 35 | 1015.3 |
| 20260503203446 | 14 | 261 | 8.0 | 24.1 | 0.00 | 0.00 | 0.00 | 37 | 1015.5 |
| 20260503202934 | 14 | 168 | 14.5 | 24.1 | 0.00 | 0.00 | 0.00 | 37 | 1015.5 |
| 20260503202445 | 14 | 155 | 6.4 | 20.9 | 0.00 | 0.00 | 0.00 | 36 | 1015.8 |
| 20260503201933 | 13 | 327 | 4.8 | 29.0 | 0.00 | 0.00 | 0.00 | 38 | 1015.7 |
| 20260503201425 | 14 | 284 | 9.7 | 29.0 | 0.00 | 0.00 | 0.00 | 36 | 1015.9 |
| 20260503200917 | 13 | 284 | 9.7 | 20.9 | 0.00 | 0.00 | 0.00 | 38 | 1015.9 |
| 20260503200422 | 14 | 325 | 9.7 | 22.5 | 0.00 | 0.00 | 0.00 | 35 | 1015.9 |
| 20260503195929 | 15 | 227 | 9.7 | 25.7 | 0.00 | 0.00 | 0.00 | 40 | 1015.9 |
| 20260503195442 | 14 | 288 | 8.0 | 29.0 | 0.00 | 0.00 | 0.00 | 37 | 1016.1 |
| 20260503194932 | 15 | 223 | 16.1 | 29.0 | 0.00 | 0.00 | 0.00 | 44 | 1016.2 |
| 20260503194422 | 15 | 176 | 14.5 | 24.1 | 0.00 | 0.00 | 0.00 | 42 | 1016.2 |
| 20260503193933 | 14 | 289 | 4.8 | 25.7 | 0.00 | 0.00 | 0.00 | 36 | 1016.1 |
| 20260503193424 | 15 | 240 | 16.1 | 25.7 | 0.00 | 0.00 | 0.00 | 41 | 1016.4 |
| 20260503192931 | 15 | 271 | 12.9 | 29.0 | 0.00 | 0.00 | 0.00 | 35 | 1016.4 |
| 20260503192420 | 15 | 212 | 12.9 | 29.0 | 0.00 | 0.00 | 0.00 | 38 | 1016.3 |
| 20260503191930 | 13 | 149 | 11.3 | 22.5 | 0.00 | 0.00 | 0.00 | 38 | 1016.3 |
| 20260503191420 | 13 | 188 | 9.7 | 20.9 | 0.00 | 0.00 | 0.00 | 43 | 1016.6 |
| 20260503190930 | 13 | 173 | 9.7 | 24.1 | 0.00 | 0.00 | 0.00 | 40 | 1016.5 |
| 20260503190422 | 13 | 12 | 8.0 | 24.1 | 0.00 | 0.00 | 0.00 | 42 | 1016.6 |
| 20260503185942 | 12 | 321 | 4.8 | 17.7 | 0.00 | 0.00 | 0.00 | 42 | 1016.7 |
| 20260503185429 | 12 | 180 | 6.4 | 19.3 | 0.00 | 0.00 | 0.00 | 38 | 1016.9 |
| 20260503184934 | 13 | 295 | 6.4 | 27.4 | 0.00 | 0.00 | 0.00 | 38 | 1017.1 |
| 20260503184425 | 13 | 263 | 11.3 | 27.4 | 0.00 | 0.00 | 0.00 | 44 | 1017.1 |
| 20260503183917 | 13 | 259 | 12.9 | 22.5 | 0.00 | 0.00 | 0.00 | 39 | 1017.1 |
| 20260503183428 | 13 | 264 | 4.8 | 24.1 | 0.00 | 0.00 | 0.00 | 38 | 1017.0 |
| 20260503182918 | 13 | 277 | 6.4 | 24.1 | 0.00 | 0.00 | 0.00 | 38 | 1017.2 |
| 20260503182428 | 12 | 291 | 11.3 | 22.5 | 0.00 | 0.00 | 0.00 | 44 | 1017.2 |
| 20260503181919 | 13 | 237 | 12.9 | 20.9 | 0.00 | 0.00 | 0.00 | 37 | 1017.2 |
| 20260503181426 | 13 | 258 | 12.9 | 24.1 | 0.00 | 0.00 | 0.00 | 42 | 1017.2 |
| 20260503180918 | 13 | 254 | 12.9 | 25.7 | 0.00 | 0.00 | 0.00 | 36 | 1017.3 |
| 20260503180424 | 13 | 300 | 16.1 | 25.7 | 0.00 | 0.00 | 0.00 | 47 | 1017.3 |
| 20260503175924 | 12 | 291 | 8.0 | 25.7 | 0.00 | 0.00 | 0.00 | 46 | 1017.3 |
| 20260503175456 | 12 | 267 | 8.0 | 27.4 | 0.00 | 0.00 | 0.00 | 38 | 1017.2 |
| 20260503174925 | 13 | 268 | 11.3 | 27.4 | 0.00 | 0.00 | 0.00 | 42 | 1017.4 |
| 20260503174457 | 13 | 306 | 12.9 | 19.3 | 0.00 | 0.00 | 0.00 | 41 | 1017.3 |
| 20260503173926 | 13 | 322 | 9.7 | 24.1 | 0.00 | 0.00 | 0.00 | 39 | 1017.5 |
| 20260503173430 | 12 | 254 | 9.7 | 27.4 | 0.00 | 0.00 | 0.00 | 38 | 1017.5 |
| 20260503172922 | 13 | 217 | 11.3 | 27.4 | 0.00 | 0.00 | 0.00 | 45 | 1017.5 |
| 20260503172431 | 12 | 294 | 12.9 | 22.5 | 0.00 | 0.00 | 0.00 | 40 | 1017.6 |
| 20260503171924 | 12 | 184 | 8.0 | 24.1 | 0.00 | 0.00 | 0.00 | 38 | 1017.8 |
| 20260503171435 | 12 | 325 | 11.3 | 27.4 | 0.00 | 0.00 | 0.00 | 44 | 1017.8 |
| 20260503170947 | 12 | 316 | 14.5 | 27.4 | 0.00 | 0.00 | 0.00 | 45 | 1018.1 |
| 20260503170416 | 12 | 286 | 6.4 | 22.5 | 0.00 | 0.00 | 0.00 | 46 | 1018.0 |
| 20260503150936 | 10 | 150 | 8.0 | 22.5 | 0.00 | 0.00 | 0.00 | 46 | 1018.8 |
| 20260503150428 | 9 | 221 | 4.8 | 22.5 | 0.00 | 0.00 | 0.00 | 43 | 1018.9 |
| 20260503130952 | 6 | 285 | 8.0 | 14.5 | 0.00 | 0.00 | 0.00 | 64 | 1019.1 |
| 20260503130442 | 6 | 259 | 6.4 | 14.5 | 0.00 | 0.00 | 0.00 | 68 | 1019.1 |
| 20260503110422 | -1 | 281 | 0.0 | 0.0 | 0.00 | 0.00 | 0.00 | 91 | 1018.3 |
| 20260503090440 | 0 | 281 | 0.0 | 0.0 | 0.00 | 0.00 | 0.00 | 92 | 1017.6 |
| 20260503081420 | 0 | 282 | 0.0 | 0.0 | 0.00 | 0.00 | 0.00 | 91 | 1017.3 |
| 20260503080931 | 0 | 282 | 0.0 | 0.0 | 0.00 | 0.00 | 0.00 | 90 | 1017.3 |
| 20260503080423 | 0 | 282 | 0.0 | 0.0 | 0.00 | 0.00 | 0.00 | 90 | 1017.3 |
| 20260503072927 | 0 | 282 | 0.0 | 0.0 | 0.00 | 0.00 | 0.00 | 88 | 1017.2 |
| 20260503072433 | 0 | 283 | 0.0 | 0.0 | 0.00 | 0.00 | 0.00 | 88 | 1017.2 |
| 20260503071923 | 0 | 283 | 0.0 | 0.0 | 0.00 | 0.00 | 0.00 | 88 | 1017.2 |
| 20260503071433 | 0 | 283 | 0.0 | 0.0 | 0.00 | 0.00 | 0.00 | 88 | 1017.2 |
| 20260503070924 | 0 | 284 | 0.0 | 0.0 | 0.00 | 0.00 | 0.00 | 88 | 1017.2 |
| 20260503070418 | 0 | 284 | 0.0 | 0.0 | 0.00 | 0.00 | 0.00 | 88 | 1017.1 |
| 20260503054930 | 1 | 282 | 0.0 | 1.6 | 0.00 | 0.00 | 0.00 | 85 | 1017.2 |
| 20260503054420 | 1 | 281 | 0.0 | 3.2 | 0.00 | 0.00 | 0.00 | 85 | 1017.2 |
| 20260503053929 | 1 | 281 | 0.0 | 3.2 | 0.00 | 0.00 | 0.00 | 85 | 1017.3 |
| 20260503053420 | 2 | 282 | 0.0 | 1.6 | 0.00 | 0.00 | 0.00 | 85 | 1017.2 |
| 20260503052926 | 2 | 282 | 0.0 | 1.6 | 0.00 | 0.00 | 0.00 | 85 | 1017.3 |
| 20260503052418 | 2 | 281 | 0.0 | 3.2 | 0.00 | 0.00 | 0.00 | 85 | 1017.2 |
| 20260503051928 | 2 | 283 | 1.6 | 3.2 | 0.00 | 0.00 | 0.00 | 85 | 1017.3 |
| 20260503051418 | 2 | 286 | 1.6 | 6.4 | 0.00 | 0.00 | 0.00 | 85 | 1017.3 |
| 20260503050930 | 2 | 287 | 0.0 | 6.4 | 0.00 | 0.00 | 0.00 | 85 | 1017.2 |
| 20260503050442 | 2 | 288 | 3.2 | 6.4 | 0.00 | 0.00 | 0.00 | 85 | 1017.3 |
| 20260503045921 | 2 | 291 | 1.6 | 6.4 | 0.00 | 0.00 | 0.00 | 86 | 1017.4 |
| 20260503045451 | 2 | 360 | 4.8 | 6.4 | 0.00 | 0.00 | 0.00 | 87 | 1017.4 |
| 20260503044922 | 2 | 281 | 1.6 | 6.4 | 0.00 | 0.00 | 0.00 | 87 | 1017.4 |
| 20260503044417 | 2 | 360 | 3.2 | 6.4 | 0.00 | 0.00 | 0.00 | 87 | 1017.4 |
| 20260503043956 | 2 | 292 | 1.6 | 6.4 | 0.00 | 0.00 | 0.00 | 86 | 1017.3 |
| 20260503043427 | 2 | 360 | 3.2 | 6.4 | 0.00 | 0.00 | 0.00 | 86 | 1017.3 |
| 20260503042917 | 2 | 360 | 4.8 | 6.4 | 0.00 | 0.00 | 0.00 | 86 | 1017.3 |
| 20260503042428 | 2 | 294 | 3.2 | 6.4 | 0.00 | 0.00 | 0.00 | 86 | 1017.4 |
| 20260503041920 | 2 | 294 | 3.2 | 6.4 | 0.00 | 0.00 | 0.00 | 86 | 1017.4 |
| 20260503041428 | 2 | 296 | 1.6 | 4.8 | 0.00 | 0.00 | 0.00 | 85 | 1017.4 |
| 20260503040919 | 2 | 294 | 1.6 | 3.2 | 0.00 | 0.00 | 0.00 | 85 | 1017.4 |
| 20260503040433 | 3 | 294 | 1.6 | 3.2 | 0.00 | 0.00 | 0.00 | 85 | 1017.4 |
| 20260503035931 | 3 | 360 | 1.6 | 4.8 | 0.00 | 0.00 | 0.00 | 84 | 1017.4 |
| 20260503035436 | 3 | 360 | 1.6 | 4.8 | 0.00 | 0.00 | 0.00 | 84 | 1017.4 |
| 20260503034926 | 3 | 296 | 1.6 | 4.8 | 0.00 | 0.00 | 0.00 | 83 | 1017.4 |
| 20260503034435 | 3 | 294 | 3.2 | 6.4 | 0.00 | 0.00 | 0.00 | 83 | 1017.4 |
| 20260503033925 | 3 | 360 | 3.2 | 6.4 | 0.00 | 0.00 | 0.00 | 83 | 1017.4 |
| 20260503033417 | 3 | 360 | 1.6 | 6.4 | 0.00 | 0.00 | 0.00 | 83 | 1017.4 |
| 20260503032926 | 3 | 317 | 0.0 | 0.0 | 0.00 | 0.00 | 0.00 | 83 | 1017.4 |
| 20260503032419 | 3 | 318 | 0.0 | 0.0 | 0.00 | 0.00 | 0.00 | 82 | 1017.4 |
| 20260503031930 | 3 | 317 | 0.0 | 0.0 | 0.00 | 0.00 | 0.00 | 82 | 1017.4 |
| 20260503031422 | 3 | 317 | 0.0 | 0.0 | 0.00 | 0.00 | 0.00 | 82 | 1017.4 |
| 20260503030933 | 3 | 316 | 0.0 | 0.0 | 0.00 | 0.00 | 0.00 | 82 | 1017.4 |
| 20260503030445 | 3 | 316 | 0.0 | 0.0 | 0.00 | 0.00 | 0.00 | 82 | 1017.3 |
| 20260503025926 | 3 | 317 | 0.0 | 0.0 | 0.00 | 0.00 | 0.00 | 81 | 1017.4 |
| 20260503025418 | 3 | 316 | 0.0 | 0.0 | 0.00 | 0.00 | 0.00 | 80 | 1017.4 |
| 20260503024943 | 3 | 317 | 0.0 | 0.0 | 0.00 | 0.00 | 0.00 | 80 | 1017.4 |
| 20260503024431 | 3 | 360 | 0.0 | 0.0 | 0.00 | 0.00 | 0.00 | 80 | 1017.4 |
| 20260503023922 | 4 | 317 | 0.0 | 0.0 | 0.00 | 0.00 | 0.00 | 80 | 1017.4 |
| 20260503023433 | 4 | 360 | 0.0 | 0.0 | 0.00 | 0.00 | 0.00 | 79 | 1017.5 |
| 20260503022927 | 4 | 360 | 0.0 | 0.0 | 0.00 | 0.00 | 0.00 | 79 | 1017.5 |
| 20260503022419 | 4 | 360 | 0.0 | 3.2 | 0.00 | 0.00 | 0.00 | 78 | 1017.5 |
| 20260503021953 | 4 | 325 | 0.0 | 3.2 | 0.00 | 0.00 | 0.00 | 78 | 1017.5 |
| 20260503021421 | 4 | 319 | 0.0 | 6.4 | 0.00 | 0.00 | 0.00 | 79 | 1017.4 |
| 20260503020932 | 4 | 321 | 3.2 | 9.7 | 0.00 | 0.00 | 0.00 | 78 | 1017.5 |
| 20260503020444 | 4 | 316 | 3.2 | 9.7 | 0.00 | 0.00 | 0.00 | 77 | 1017.5 |
| 20260503015927 | 4 | 324 | 4.8 | 9.7 | 0.00 | 0.00 | 0.00 | 78 | 1017.5 |
| 20260503015419 | 4 | 326 | 6.4 | 12.9 | 0.00 | 0.00 | 0.00 | 77 | 1017.5 |
| 20260503014930 | 4 | 327 | 6.4 | 12.9 | 0.00 | 0.00 | 0.00 | 77 | 1017.6 |
| 20260503014421 | 4 | 317 | 6.4 | 9.7 | 0.00 | 0.00 | 0.00 | 76 | 1017.6 |
| 20260503013933 | 4 | 320 | 4.8 | 9.7 | 0.00 | 0.00 | 0.00 | 76 | 1017.6 |
| 20260503013421 | 4 | 319 | 3.2 | 6.4 | 0.00 | 0.00 | 0.00 | 78 | 1017.6 |
| 20260503012931 | 4 | 319 | 0.0 | 0.0 | 0.00 | 0.00 | 0.00 | 76 | 1017.5 |
| 20260503012422 | 5 | 321 | 0.0 | 0.0 | 0.00 | 0.00 | 0.00 | 76 | 1017.5 |
| 20260503011933 | 5 | 320 | 0.0 | 0.0 | 0.00 | 0.00 | 0.00 | 77 | 1017.5 |
| 20260503011427 | 5 | 319 | 0.0 | 9.7 | 0.00 | 0.00 | 0.00 | 76 | 1017.4 |
| 20260503010917 | 5 | 321 | 1.6 | 9.7 | 0.00 | 0.00 | 0.00 | 77 | 1017.4 |
| 20260503010428 | 5 | 301 | 3.2 | 6.4 | 0.00 | 0.00 | 0.00 | 75 | 1017.4 |
| 20260503005926 | 5 | 297 | 3.2 | 6.4 | 0.00 | 0.00 | 0.00 | 75 | 1017.4 |
| 20260503005419 | 5 | 317 | 1.6 | 6.4 | 0.00 | 0.00 | 0.00 | 75 | 1017.3 |
| 20260503004930 | 5 | 319 | 3.2 | 6.4 | 0.00 | 0.00 | 0.00 | 74 | 1017.2 |
| 20260503004421 | 5 | 317 | 4.8 | 8.0 | 0.00 | 0.00 | 0.00 | 74 | 1017.1 |
| 20260503003934 | 5 | 301 | 4.8 | 8.0 | 0.00 | 0.00 | 0.00 | 73 | 1017.1 |
| 20260503003424 | 5 | 312 | 4.8 | 8.0 | 0.00 | 0.00 | 0.00 | 72 | 1017.1 |
| 20260503002934 | 5 | 343 | 3.2 | 12.9 | 0.00 | 0.00 | 0.00 | 72 | 1017.0 |
| 20260503002425 | 5 | 307 | 6.4 | 12.9 | 0.00 | 0.00 | 0.00 | 72 | 1016.9 |
| 20260503001952 | 5 | 322 | 4.8 | 11.3 | 0.00 | 0.00 | 0.00 | 73 | 1016.9 |
| 20260503001443 | 5 | 311 | 3.2 | 8.0 | 0.00 | 0.00 | 0.00 | 72 | 1016.9 |
| 20260503000955 | 5 | 299 | 4.8 | 12.9 | 0.00 | 0.00 | 0.00 | 72 | 1016.9 |
| 20260503000425 | 5 | 319 | 4.8 | 12.9 | 0.00 | 0.00 | 0.00 | 73 | 1016.8 |
| 20260502235926 | 5 | 313 | 4.8 | 12.9 | 0.00 | 0.00 | 0.00 | 74 | 1016.7 |
| 20260502235457 | 5 | 317 | 8.0 | 16.1 | 0.00 | 0.00 | 0.00 | 71 | 1016.7 |
| 20260502234929 | 5 | 309 | 8.0 | 16.1 | 0.00 | 0.00 | 0.00 | 72 | 1016.6 |
| 20260502234436 | 5 | 303 | 8.0 | 17.7 | 0.00 | 0.00 | 0.00 | 72 | 1016.6 |
| 20260502233926 | 5 | 30 | 8.0 | 17.7 | 0.00 | 0.00 | 0.00 | 72 | 1016.6 |
| 20260502233420 | 6 | 286 | 8.0 | 16.1 | 0.00 | 0.00 | 0.00 | 72 | 1016.5 |
| 20260502232952 | 6 | 308 | 4.8 | 14.5 | 0.00 | 0.00 | 0.00 | 72 | 1016.5 |
| 20260502232422 | 6 | 315 | 6.4 | 14.5 | 0.00 | 0.00 | 0.00 | 71 | 1016.4 |
| 20260502231933 | 6 | 283 | 8.0 | 12.9 | 0.00 | 0.00 | 0.00 | 70 | 1016.3 |
| 20260502231424 | 6 | 302 | 3.2 | 16.1 | 0.00 | 0.00 | 0.00 | 69 | 1016.3 |
| 20260502230935 | 6 | 311 | 9.7 | 19.3 | 0.00 | 0.00 | 0.00 | 70 | 1016.3 |
| 20260502230444 | 6 | 310 | 9.7 | 19.3 | 0.00 | 0.00 | 0.00 | 70 | 1016.3 |
| 20260502225919 | 6 | 305 | 9.7 | 20.9 | 0.00 | 0.00 | 0.00 | 70 | 1016.3 |
| 20260502225449 | 6 | 304 | 11.3 | 20.9 | 0.00 | 0.00 | 0.00 | 73 | 1016.2 |
| 20260502224922 | 6 | 306 | 9.7 | 22.5 | 0.00 | 0.00 | 0.00 | 71 | 1016.2 |
| 20260502224435 | 6 | 298 | 8.0 | 22.5 | 0.00 | 0.00 | 0.00 | 73 | 1016.3 |
| 20260502223925 | 6 | 304 | 6.4 | 17.7 | 0.00 | 0.00 | 0.00 | 73 | 1016.3 |
| 20260502223417 | 6 | 27 | 8.0 | 17.7 | 0.00 | 0.00 | 0.00 | 72 | 1016.3 |
| 20260502222946 | 6 | 277 | 9.7 | 17.7 | 0.00 | 0.00 | 0.00 | 72 | 1016.2 |
| 20260502222417 | 6 | 296 | 11.3 | 17.7 | 0.00 | 0.00 | 0.00 | 73 | 1016.1 |
| 20260502221927 | 6 | 313 | 11.3 | 19.3 | 0.00 | 0.00 | 0.00 | 72 | 1016.2 |
| 20260502221418 | 6 | 286 | 8.0 | 20.9 | 0.00 | 0.00 | 0.00 | 72 | 1016.1 |
| 20260502220930 | 6 | 313 | 9.7 | 22.5 | 0.00 | 0.00 | 0.00 | 73 | 1016.1 |
| 20260502220421 | 6 | 314 | 12.9 | 22.5 | 0.00 | 0.00 | 0.00 | 74 | 1016.1 |
| 20260502215944 | 6 | 291 | 11.3 | 22.5 | 0.00 | 0.03 | 0.00 | 73 | 1016.1 |
| 20260502215436 | 6 | 317 | 11.3 | 20.9 | 0.00 | 0.03 | 0.00 | 72 | 1016.0 |
| 20260502214924 | 6 | 310 | 11.3 | 22.5 | 0.00 | 0.03 | 0.00 | 74 | 1015.9 |
| 20260502214455 | 6 | 318 | 14.5 | 32.2 | 0.00 | 0.03 | 0.00 | 70 | 1015.9 |
| 20260502213926 | 7 | 327 | 16.1 | 32.2 | 0.00 | 0.03 | 0.00 | 68 | 1015.9 |
| 20260502213418 | 8 | 307 | 11.3 | 22.5 | 0.00 | 0.03 | 0.00 | 68 | 1016.0 |
| 20260502212948 | 8 | 331 | 16.1 | 22.5 | 0.00 | 0.03 | 0.00 | 65 | 1015.8 |
| 20260502212419 | 7 | 292 | 8.0 | 20.9 | 0.00 | 0.03 | 0.00 | 67 | 1015.6 |